#timestamp,LO_Frequency,Hit,StdDev 
1510977615.1,286046987.6,Y
1510977616.0,286046987.6,P
1510977635.8,286046997.7,P
1510977655.6,286046993.3,N
1510977675.5,286046996.3,N
1510977695.3,286046995.0,N
1510977715.1,286046993.7,N
1510977735.9,286046993.9,N
1510977755.7,286046991.9,N
1510977775.5,286046994.7,N
1510977795.3,286046996.1,N
1510977815.2,286046996.2,N
1510977835.0,286046991.7,N
1510977835.9,286046991.7,N
1510977855.7,286046991.5,Y
1510977875.6,286046997.1,P
1510977895.4,286046998.9,N
1510977915.2,286046999.0,N
1510977935.1,286046997.1,N
1510977936.0,286046997.1,N
1510977955.8,286046999.0,N
1510977975.6,286046998.8,N
1510977995.5,286047002.7,N
1510978015.3,286047000.2,N
1510978035.1,286047002.7,N
1510978055.9,286047002.4,N
1510978075.7,286047005.9,N
1510978095.5,286047007.5,N
1510978115.3,286047008.1,N
1510978135.2,286047010.3,N
1510978155.0,286047013.3,N
1510978155.9,286047013.3,N
1510978175.7,286047013.6,N
1510978195.6,286047015.4,N
1510978215.4,286047017.4,N
1510978235.2,286047023.5,Y
1510978255.1,286047024.6,P
1510978256.0,286047024.6,N
1510978275.8,286047035.1,P
1510978295.7,286047043.5,Y
1510978315.5,286047030.5,P
1510978335.3,286047045.8,P
1510978355.1,286047051.2,P
1510978375.9,286047062.7,Y
1510978395.7,286047034.3,P
1510978415.5,286047037.5,P
1510978435.4,286047045.2,P
1510978455.2,286047048.9,Y
1510978475.0,286047015.0,P
1510978476.0,286047015.0,N
1510978495.8,286047024.1,N
1510978515.6,286047020.6,N
1510978535.5,286047026.7,Y
1510978555.3,286047004.3,P
1510978575.1,286047003.0,N
1510978595.8,286047009.6,N
1510978615.7,286047013.1,N
1510978635.5,286047020.1,N
1510978655.3,286047016.0,N
1510978675.2,286047024.3,Y
1510978695.0,286047013.2,P
1510978695.9,286047013.2,P
1510978715.7,286047013.4,P
1510978735.6,286047014.6,Y
1510978755.4,286047004.7,P
1510978775.2,286047002.2,N
1510978795.1,286046997.6,N
1510978796.0,286046997.6,N
1510978815.8,286046992.6,N
1510978835.6,286046995.3,N
1510978855.5,286046998.5,N
1510978875.3,286046992.1,N
1510978895.1,286046992.7,N
1510978915.9,286046995.7,N
1510978935.7,286046995.4,N
1510978955.5,286046994.5,N
1510978975.4,286046998.0,N
1510978995.2,286046996.2,N
1510979015.0,286046983.7,Y
1510979015.9,286046983.7,P
1510979035.8,286046987.0,N
1510979055.6,286046987.9,N
1510979075.4,286046986.8,N
1510979095.3,286046977.3,Y
1510979115.1,286046989.4,P
1510979116.0,286046989.4,P
1510979135.8,286046984.2,P
1510979155.7,286046980.5,Y
1510979175.5,286046994.6,P
1510979195.3,286046992.4,N
1510979215.2,286046988.6,P
1510979235.9,286046986.3,Y
1510979255.7,286046989.1,P
1510979275.6,286046986.4,P
1510979295.4,286046983.1,P
1510979315.2,286046981.7,Y
1510979335.1,286046989.9,P
1510979336.0,286046989.9,P
1510979355.8,286046983.7,P
1510979375.6,286046985.1,Y
1510979395.5,286046991.7,P
1510979415.3,286046990.0,P
1510979435.1,286046980.8,P
1510979455.9,286046981.4,Y
1510979475.7,286046993.2,P
1510979495.5,286046991.8,N
1510979515.4,286046991.3,P
1510979535.2,286046984.4,Y
1510979555.0,286046987.1,P
1510979555.9,286046987.1,P
1510979575.8,286046984.5,P
1510979595.6,286046980.5,Y
1510979615.4,286046989.0,P
1510979635.3,286046984.0,P
1510979655.1,286046983.7,P
1510979675.8,286046982.3,Y
1510979695.7,286046998.8,P
1510979715.5,286046995.7,N
1510979735.3,286046995.1,N
1510979755.2,286046991.8,N
1510979775.9,286046994.2,N
1510979795.7,286046992.6,N
1510979815.6,286046996.1,N
1510979835.4,286046997.4,N
1510979855.2,286046994.6,N
1510979875.1,286046994.7,N
1510979876.0,286046994.7,N
1510979895.8,286046996.0,N
1510979915.6,286046999.0,N
1510979935.4,286046997.3,N
1510979955.3,286046998.2,N
1510979975.1,286046999.6,N
1510979995.8,286046997.8,N
1510980015.7,286046996.4,N
1510980035.5,286046992.4,N
1510980055.3,286046992.7,N
1510980075.2,286046992.8,N
1510980095.0,286046997.1,N
1510980095.9,286046997.1,N
1510980115.7,286046997.7,N
1510980135.6,286047003.6,N
1510980155.4,286047005.7,N
1510980175.2,286047005.7,N
1510980195.1,286047010.2,N
1510980196.0,286047010.2,N
1510980215.8,286047013.0,N
1510980235.6,286047016.2,N
1510980255.5,286047019.7,Y
1510980275.3,286047024.7,P
1510980295.1,286047022.2,N
1510980315.9,286047023.9,N
1510980335.7,286047026.6,N
1510980355.5,286047030.0,N
1510980375.4,286047031.3,Y
1510980395.2,286047006.4,P
1510980415.0,286047001.8,N
1510980415.9,286047001.8,N
1510980435.8,286047000.8,N
1510980455.6,286046999.8,N
1510980475.4,286047002.6,N
1510980495.2,286047000.1,N
1510980515.1,286047000.8,N
1510980516.0,286047000.8,N
1510980535.8,286047003.8,N
1510980555.6,286047004.1,N
1510980575.5,286047006.9,N
1510980595.3,286047006.9,N
1510980615.1,286047005.0,N
1510980635.9,286047007.5,N
1510980655.7,286047008.8,N
1510980675.5,286047011.7,N
1510980695.4,286047006.2,N
1510980715.2,286047004.7,N
1510980735.0,286047004.7,N
1510980735.9,286047004.7,N
1510980755.8,286047004.7,N
1510980775.6,286047003.3,N
1510980795.4,286047000.2,N
1510980815.2,286047000.7,N
1510980835.1,286047000.3,N
1510980836.0,286047000.3,N
1510980855.8,286047005.2,N
1510980875.6,286047004.1,N
1510980895.5,286047002.4,N
1510980915.3,286047003.9,N
1510980935.1,286047003.8,N
1510980955.9,286047000.6,N
1510980975.7,286046998.8,N
1510980995.5,286046997.7,N
1510981015.4,286046995.5,N
1510981035.2,286046994.2,N
1510981055.0,286046991.2,N
1510981055.9,286046991.2,N
1510981075.8,286046983.9,Y
1510981095.6,286046983.1,P
1510981115.4,286046979.8,N
1510981135.3,286046981.0,N
1510981155.1,286046983.7,N
1510981156.0,286046983.7,N
1510981175.8,286046983.5,N
1510981195.7,286046982.3,N
